Time,TemperatureF,DewpointF,PressureIn,WindDirection,WindDirectionDegrees,WindSpeedMPH,WindSpeedGustMPH,Humidity,HourlyPrecipIn,Conditions,Clouds,dailyrainin,SoftwareType,DateUTC
2013-02-10 00:03:00,40.8,38.7,29.98,East,80,4.0,10.0,92,0.04,,---,0.09,VWS V13.01,2013-02-10 06:03:00,
2013-02-10 00:08:00,40.8,38.7,29.98,ESE,103,3.0,7.0,92,0.03,,---,0.00,VWS V13.01,2013-02-10 06:08:00,
2013-02-10 00:13:00,40.8,38.7,29.98,ESE,105,5.0,7.0,92,0.04,,---,0.01,VWS V13.01,2013-02-10 06:13:00,
2013-02-10 00:18:00,40.9,38.8,29.97,ESE,106,7.0,7.0,92,0.04,,---,0.01,VWS V13.01,2013-02-10 06:18:00,
2013-02-10 00:23:00,40.9,38.8,29.96,ESE,111,5.0,9.0,92,0.04,,---,0.01,VWS V13.01,2013-02-10 06:23:00,
2013-02-10 00:29:00,41.0,38.9,29.96,ESE,118,6.0,10.0,92,0.04,,---,0.01,VWS V13.01,2013-02-10 06:29:00,
2013-02-10 00:34:00,41.1,39.0,29.95,ESE,115,7.0,10.0,92,0.04,,---,0.01,VWS V13.01,2013-02-10 06:34:00,
2013-02-10 00:39:00,41.1,39.2,29.95,East,96,4.0,11.0,93,0.02,,---,0.01,VWS V13.01,2013-02-10 06:39:00,
2013-02-10 00:44:00,41.2,39.3,29.95,SSE,159,0.0,11.0,93,0.02,,---,0.01,VWS V13.01,2013-02-10 06:44:00,
2013-02-10 00:49:00,41.2,39.1,29.95,East,88,5.0,11.0,92,0.02,,---,0.01,VWS V13.01,2013-02-10 06:49:00,
2013-02-10 00:54:00,41.3,39.4,29.95,East,96,5.0,11.0,93,0.02,,---,0.01,VWS V13.01,2013-02-10 06:54:00,
2013-02-10 00:59:00,41.3,39.4,29.94,ESE,102,5.0,11.0,93,0.02,,---,0.01,VWS V13.01,2013-02-10 06:59:00,
2013-02-10 01:04:00,41.4,39.5,29.94,ESE,104,5.0,11.0,93,0.02,,---,0.01,VWS V13.01,2013-02-10 07:04:00,
2013-02-10 01:09:00,41.4,39.5,29.92,ESE,120,3.0,10.0,93,0.01,,---,0.01,VWS V13.01,2013-02-10 07:09:00,
2013-02-10 01:14:00,41.4,39.5,29.91,SE,140,2.0,10.0,93,0.01,,---,0.01,VWS V13.01,2013-02-10 07:14:00,
2013-02-10 01:20:00,41.5,39.6,29.91,SE,146,6.0,11.0,93,0.01,,---,0.01,VWS V13.01,2013-02-10 07:20:00,
2013-02-10 01:25:00,41.6,39.7,29.91,East,98,5.0,11.0,93,0.01,,---,0.01,VWS V13.01,2013-02-10 07:25:00,
2013-02-10 01:30:00,41.6,39.7,29.90,ESE,111,5.0,13.0,93,0.01,,---,0.01,VWS V13.01,2013-02-10 07:30:00,
2013-02-10 01:35:00,41.7,39.8,29.90,NE,49,6.0,13.0,93,0.01,,---,0.01,VWS V13.01,2013-02-10 07:35:00,
2013-02-10 01:40:00,41.7,39.8,29.90,East,89,3.0,9.0,93,0.00,,---,0.01,VWS V13.01,2013-02-10 07:40:00,
2013-02-10 01:45:00,41.8,39.9,29.90,ESE,122,4.0,10.0,93,0.00,,---,0.01,VWS V13.01,2013-02-10 07:45:00,
2013-02-10 01:50:00,41.9,40.0,29.89,ESE,121,2.0,10.0,93,0.00,,---,0.01,VWS V13.01,2013-02-10 07:50:00,
2013-02-10 01:55:00,42.0,40.1,29.89,SE,144,1.0,10.0,93,0.00,,---,0.01,VWS V13.01,2013-02-10 07:55:00,
2013-02-10 02:00:00,42.0,40.1,29.88,East,98,5.0,10.0,93,0.00,,---,0.01,VWS V13.01,2013-02-10 08:00:00,
2013-02-10 02:05:00,42.1,40.2,29.88,ESE,115,0.0,10.0,93,0.00,,---,0.01,VWS V13.01,2013-02-10 08:05:00,
2013-02-10 02:10:00,42.2,40.3,29.88,ESE,112,6.0,11.0,93,0.00,,---,0.01,VWS V13.01,2013-02-10 08:10:00,
2013-02-10 02:15:00,42.3,40.4,29.87,SE,132,1.0,11.0,93,0.00,,---,0.01,VWS V13.01,2013-02-10 08:15:00,
2013-02-10 02:20:00,42.4,40.5,29.87,SE,128,5.0,11.0,93,0.00,,---,0.01,VWS V13.01,2013-02-10 08:20:00,
2013-02-10 02:25:00,42.5,40.6,29.87,SE,126,6.0,11.0,93,0.00,,---,0.01,VWS V13.01,2013-02-10 08:25:00,
2013-02-10 02:30:00,42.7,40.8,29.86,ESE,105,3.0,11.0,93,0.00,,---,0.01,VWS V13.01,2013-02-10 08:30:00,
2013-02-10 02:35:00,42.8,40.9,29.86,ESE,115,3.0,11.0,93,0.00,,---,0.01,VWS V13.01,2013-02-10 08:35:00,
2013-02-10 02:40:00,42.9,41.0,29.86,East,83,4.0,9.0,93,0.00,,---,0.01,VWS V13.01,2013-02-10 08:40:00,
2013-02-10 02:45:00,43.0,41.1,29.85,ESE,107,4.0,9.0,93,0.00,,---,0.01,VWS V13.01,2013-02-10 08:45:00,
2013-02-10 02:50:00,43.1,41.2,29.84,ESE,103,4.0,9.0,93,0.00,,---,0.01,VWS V13.01,2013-02-10 08:50:00,
2013-02-10 02:55:00,43.2,41.3,29.83,ESE,122,4.0,9.0,93,0.00,,---,0.01,VWS V13.01,2013-02-10 08:55:00,
2013-02-10 03:00:00,43.3,41.4,29.83,ESE,114,5.0,10.0,93,0.00,,---,0.01,VWS V13.01,2013-02-10 09:00:00,
2013-02-10 03:05:00,43.4,41.5,29.82,East,95,5.0,5.0,93,0.00,,---,0.01,VWS V13.01,2013-02-10 09:05:00,
2013-02-10 03:11:00,43.5,41.6,29.82,East,89,2.0,9.0,93,0.00,,---,0.01,VWS V13.01,2013-02-10 09:11:00,
2013-02-10 03:16:00,43.6,41.7,29.82,East,98,4.0,9.0,93,0.00,,---,0.01,VWS V13.01,2013-02-10 09:16:00,
2013-02-10 03:21:00,43.7,41.8,29.82,East,96,6.0,9.0,93,0.00,,---,0.01,VWS V13.01,2013-02-10 09:21:00,
2013-02-10 03:26:00,43.8,41.9,29.82,ESE,113,3.0,9.0,93,0.00,,---,0.01,VWS V13.01,2013-02-10 09:26:00,
2013-02-10 03:31:00,43.9,42.0,29.81,ENE,66,4.0,10.0,93,0.00,,---,0.01,VWS V13.01,2013-02-10 09:31:00,
2013-02-10 03:36:00,44.0,42.1,29.81,East,84,4.0,4.0,93,0.00,,---,0.01,VWS V13.01,2013-02-10 09:36:00,
2013-02-10 03:41:00,44.1,42.5,29.81,ESE,106,9.0,9.0,94,0.00,,---,0.01,VWS V13.01,2013-02-10 09:41:00,
2013-02-10 03:46:00,44.1,42.5,29.81,ESE,118,5.0,10.0,94,0.00,,---,0.01,VWS V13.01,2013-02-10 09:46:00,
2013-02-10 03:51:00,44.2,42.3,29.80,East,97,3.0,10.0,93,0.00,,---,0.01,VWS V13.01,2013-02-10 09:51:00,
2013-02-10 03:56:00,44.2,42.3,29.79,East,95,6.0,11.0,93,0.00,,---,0.01,VWS V13.01,2013-02-10 09:56:00,
2013-02-10 04:01:00,44.3,42.4,29.79,ESE,105,4.0,11.0,93,0.00,,---,0.01,VWS V13.01,2013-02-10 10:01:00,
2013-02-10 04:06:00,44.3,42.4,29.78,ESE,113,3.0,11.0,93,0.00,,---,0.01,VWS V13.01,2013-02-10 10:06:00,
2013-02-10 04:12:00,44.3,42.4,29.77,SE,126,5.0,11.0,93,0.00,,---,0.01,VWS V13.01,2013-02-10 10:12:00,
2013-02-10 04:17:00,44.5,42.9,29.78,SE,133,5.0,11.0,94,0.00,,---,0.01,VWS V13.01,2013-02-10 10:17:00,
2013-02-10 04:22:00,44.7,43.1,29.78,East,98,6.0,11.0,94,0.00,,---,0.01,VWS V13.01,2013-02-10 10:22:00,
2013-02-10 04:27:00,44.9,43.3,29.78,East,101,3.0,11.0,94,0.00,,---,0.01,VWS V13.01,2013-02-10 10:27:00,
2013-02-10 04:32:00,45.1,43.5,29.78,SE,130,5.0,11.0,94,0.00,,---,0.01,VWS V13.01,2013-02-10 10:32:00,
2013-02-10 04:37:00,45.2,43.6,29.78,East,99,2.0,9.0,94,0.00,,---,0.01,VWS V13.01,2013-02-10 10:37:00,
2013-02-10 04:42:00,45.4,43.8,29.78,South,173,2.0,9.0,94,0.00,,---,0.01,VWS V13.01,2013-02-10 10:42:00,
2013-02-10 04:47:00,45.5,43.9,29.77,ESE,105,9.0,12.0,94,0.00,,---,0.01,VWS V13.01,2013-02-10 10:47:00,
2013-02-10 04:52:00,45.6,44.0,29.78,ESE,107,2.0,12.0,94,0.00,,---,0.01,VWS V13.01,2013-02-10 10:52:00,
2013-02-10 04:57:00,45.7,44.1,29.79,SE,141,2.0,12.0,94,0.00,,---,0.01,VWS V13.01,2013-02-10 10:57:00,
2013-02-10 05:02:00,45.8,44.2,29.79,East,98,3.0,12.0,94,0.00,,---,0.01,VWS V13.01,2013-02-10 11:02:00,
2013-02-10 05:07:00,46.1,44.5,29.79,SE,138,2.0,4.0,94,0.00,,---,0.01,VWS V13.01,2013-02-10 11:07:00,
2013-02-10 05:12:00,46.4,44.8,29.78,SE,137,5.0,6.0,94,0.00,,---,0.01,VWS V13.01,2013-02-10 11:12:00,
2013-02-10 05:17:00,46.8,45.2,29.78,South,184,2.0,9.0,94,0.00,,---,0.01,VWS V13.01,2013-02-10 11:17:00,
2013-02-10 05:22:00,47.1,45.5,29.78,ESE,115,2.0,9.0,94,0.00,,---,0.01,VWS V13.01,2013-02-10 11:22:00,
2013-02-10 05:27:00,47.2,45.6,29.77,ESE,115,3.0,9.0,94,0.00,,---,0.01,VWS V13.01,2013-02-10 11:27:00,
2013-02-10 05:32:00,47.2,45.6,29.76,ESE,108,5.0,9.0,94,0.00,,---,0.01,VWS V13.01,2013-02-10 11:32:00,
2013-02-10 05:37:00,47.1,45.5,29.77,East,90,1.0,4.0,94,0.00,,---,0.01,VWS V13.01,2013-02-10 11:37:00,
2013-02-10 05:42:00,47.1,45.5,29.78,ESE,113,3.0,5.0,94,0.00,,---,0.01,VWS V13.01,2013-02-10 11:42:00,
2013-02-10 05:47:00,47.2,45.6,29.76,East,101,2.0,6.0,94,0.00,,---,0.01,VWS V13.01,2013-02-10 11:47:00,
2013-02-10 05:53:00,47.2,45.6,29.76,East,96,3.0,6.0,94,0.00,,---,0.01,VWS V13.01,2013-02-10 11:53:00,
2013-02-10 05:58:00,47.4,46.0,29.77,East,96,1.0,6.0,95,0.01,,---,0.03,VWS V13.01,2013-02-10 11:58:00,
2013-02-10 06:03:00,47.5,46.1,29.78,East,94,2.0,6.0,95,0.04,,---,0.05,VWS V13.01,2013-02-10 12:03:00,
2013-02-10 06:08:00,47.6,46.2,29.78,East,94,0.0,2.0,95,0.05,,---,0.06,VWS V13.01,2013-02-10 12:08:00,
2013-02-10 06:13:00,47.8,46.4,29.79,East,94,0.0,2.0,95,0.07,,---,0.08,VWS V13.01,2013-02-10 12:13:00,
2013-02-10 06:18:00,47.9,46.5,29.81,East,94,0.0,2.0,95,0.08,,---,0.09,VWS V13.01,2013-02-10 12:18:00,
2013-02-10 06:23:00,48.0,46.6,29.80,East,94,0.0,2.0,95,0.15,,---,0.17,VWS V13.01,2013-02-10 12:23:00,
2013-02-10 06:28:00,48.2,46.8,29.77,SE,133,3.0,7.0,95,0.24,,---,0.25,VWS V13.01,2013-02-10 12:28:00,
2013-02-10 06:33:00,48.7,47.3,29.78,East,96,6.0,9.0,95,0.26,,---,0.27,VWS V13.01,2013-02-10 12:33:00,
2013-02-10 06:38:00,49.1,47.7,29.78,East,79,5.0,6.0,95,0.27,,---,0.28,VWS V13.01,2013-02-10 12:38:00,
2013-02-10 06:43:00,49.2,47.8,29.78,ENE,74,1.0,6.0,95,0.28,,---,0.30,VWS V13.01,2013-02-10 12:43:00,
2013-02-10 06:48:00,49.2,47.8,29.78,ENE,74,0.0,6.0,95,0.30,,---,0.31,VWS V13.01,2013-02-10 12:48:00,
2013-02-10 06:53:00,49.0,47.6,29.78,ENE,74,3.0,6.0,95,0.33,,---,0.35,VWS V13.01,2013-02-10 12:53:00,
2013-02-10 06:58:00,48.8,47.4,29.80,ENE,74,2.0,6.0,95,0.36,,---,0.39,VWS V13.01,2013-02-10 12:58:00,
2013-02-10 07:03:00,48.7,47.3,29.82,ENE,74,0.0,6.0,95,0.48,,---,0.51,VWS V13.01,2013-02-10 13:03:00,
2013-02-10 07:08:00,48.9,47.5,29.79,SSE,155,4.0,6.0,95,0.54,,---,0.61,VWS V13.01,2013-02-10 13:08:00,
2013-02-10 07:13:00,49.4,48.0,29.79,SSE,159,4.0,6.0,95,0.57,,---,0.63,VWS V13.01,2013-02-10 13:13:00,
2013-02-10 07:18:00,49.9,48.5,29.79,SSE,161,3.0,9.0,95,0.60,,---,0.66,VWS V13.01,2013-02-10 13:18:00,
2013-02-10 07:23:00,50.8,49.4,29.76,East,98,10.0,17.0,95,0.63,,---,0.69,VWS V13.01,2013-02-10 13:23:00,
2013-02-10 07:28:00,51.1,49.7,29.71,SSE,158,3.0,17.0,95,0.65,,---,0.71,VWS V13.01,2013-02-10 13:28:00,
2013-02-10 07:33:00,51.7,50.6,29.73,SE,141,5.0,17.0,96,0.65,,---,0.71,VWS V13.01,2013-02-10 13:33:00,
2013-02-10 07:38:00,52.1,50.7,29.74,ESE,123,5.0,6.0,95,0.43,,---,0.71,VWS V13.01,2013-02-10 13:38:00,
2013-02-10 07:43:00,52.4,51.0,29.73,SSE,155,6.0,10.0,95,0.43,,---,0.71,VWS V13.01,2013-02-10 13:43:00,
2013-02-10 07:48:00,52.6,51.2,29.73,SE,129,3.0,12.0,95,0.43,,---,0.71,VWS V13.01,2013-02-10 13:48:00,
2013-02-10 07:53:00,52.6,51.2,29.71,East,87,6.0,12.0,95,0.43,,---,0.71,VWS V13.01,2013-02-10 13:53:00,
2013-02-10 07:58:00,52.5,51.1,29.73,ENE,78,4.0,12.0,95,0.43,,---,0.71,VWS V13.01,2013-02-10 13:58:00,
2013-02-10 08:03:00,52.5,51.1,29.73,ESE,110,2.0,12.0,95,0.43,,---,0.71,VWS V13.01,2013-02-10 14:03:00,
2013-02-10 08:08:00,52.6,51.2,29.74,ESE,107,3.0,6.0,95,0.13,,---,0.71,VWS V13.01,2013-02-10 14:08:00,
2013-02-10 08:13:00,52.7,51.3,29.74,ESE,107,0.0,6.0,95,0.13,,---,0.71,VWS V13.01,2013-02-10 14:13:00,
2013-02-10 08:18:00,52.8,51.7,29.75,ESE,108,2.0,6.0,96,0.13,,---,0.71,VWS V13.01,2013-02-10 14:18:00,
2013-02-10 08:23:00,53.0,51.6,29.75,SSW,193,2.0,6.0,95,0.13,,---,0.71,VWS V13.01,2013-02-10 14:23:00,
2013-02-10 08:28:00,53.3,51.9,29.75,SSE,149,1.0,6.0,95,0.13,,---,0.71,VWS V13.01,2013-02-10 14:28:00,
2013-02-10 08:34:00,53.4,52.3,29.75,SSE,164,2.0,6.0,96,0.13,,---,0.71,VWS V13.01,2013-02-10 14:34:00,
2013-02-10 08:39:00,53.6,52.5,29.76,South,175,0.0,3.0,96,0.00,,---,0.71,VWS V13.01,2013-02-10 14:39:00,
2013-02-10 08:44:00,53.7,52.6,29.76,North,355,0.0,3.0,96,0.00,,---,0.71,VWS V13.01,2013-02-10 14:44:00,
2013-02-10 08:49:00,53.9,52.8,29.76,SSW,197,0.0,6.0,96,0.00,,---,0.71,VWS V13.01,2013-02-10 14:49:00,
2013-02-10 08:54:00,54.1,53.0,29.76,South,191,3.0,7.0,96,0.00,,---,0.71,VWS V13.01,2013-02-10 14:54:00,
2013-02-10 08:59:00,54.4,53.3,29.76,South,187,3.0,7.0,96,0.00,,---,0.71,VWS V13.01,2013-02-10 14:59:00,
2013-02-10 09:04:00,54.6,53.5,29.76,South,187,2.0,7.0,96,0.00,,---,0.71,VWS V13.01,2013-02-10 15:04:00,
2013-02-10 09:09:00,54.7,53.6,29.75,South,186,3.0,4.0,96,0.00,,---,0.71,VWS V13.01,2013-02-10 15:09:00,
2013-02-10 09:14:00,54.9,53.8,29.76,SSW,194,1.0,5.0,96,0.00,,---,0.71,VWS V13.01,2013-02-10 15:14:00,
2013-02-10 09:19:00,55.1,54.0,29.76,SSW,192,4.0,6.0,96,0.00,,---,0.71,VWS V13.01,2013-02-10 15:19:00,
2013-02-10 09:24:00,55.2,54.1,29.76,South,185,3.0,6.0,96,0.00,,---,0.71,VWS V13.01,2013-02-10 15:24:00,
2013-02-10 09:29:00,55.3,54.2,29.76,SSW,196,1.0,7.0,96,0.00,,---,0.71,VWS V13.01,2013-02-10 15:29:00,
2013-02-10 09:34:00,55.5,54.4,29.77,SSW,207,3.0,7.0,96,0.00,,---,0.71,VWS V13.01,2013-02-10 15:34:00,
2013-02-10 09:39:00,55.7,54.6,29.76,SW,218,3.0,10.0,96,0.00,,---,0.71,VWS V13.01,2013-02-10 15:39:00,
2013-02-10 09:44:00,55.9,54.8,29.77,SW,226,0.0,10.0,96,0.00,,---,0.71,VWS V13.01,2013-02-10 15:44:00,
2013-02-10 09:49:00,56.3,55.2,29.77,SSW,213,0.0,10.0,96,0.00,,---,0.71,VWS V13.01,2013-02-10 15:49:00,
2013-02-10 09:54:00,56.6,55.5,29.77,SW,230,5.0,10.0,96,0.00,,---,0.71,VWS V13.01,2013-02-10 15:54:00,
2013-02-10 09:59:00,56.9,55.8,29.76,SW,219,3.0,10.0,96,0.00,,---,0.71,VWS V13.01,2013-02-10 15:59:00,
2013-02-10 10:04:00,57.2,56.1,29.76,SW,217,0.0,10.0,96,0.00,,---,0.71,VWS V13.01,2013-02-10 16:04:00,
2013-02-10 10:09:00,57.3,56.2,29.76,SW,229,5.0,10.0,96,0.00,,---,0.71,VWS V13.01,2013-02-10 16:09:00,
2013-02-10 10:14:00,57.5,56.4,29.76,SW,227,3.0,12.0,96,0.00,,---,0.71,VWS V13.01,2013-02-10 16:14:00,
2013-02-10 10:19:00,57.7,56.3,29.77,SW,215,5.0,12.0,95,0.00,,---,0.71,VWS V13.01,2013-02-10 16:19:00,
2013-02-10 10:24:00,57.7,56.3,29.77,SSW,206,0.0,12.0,95,0.00,,---,0.71,VWS V13.01,2013-02-10 16:24:00,
2013-02-10 10:29:00,58.0,56.6,29.77,SW,236,0.0,12.0,95,0.00,,---,0.71,VWS V13.01,2013-02-10 16:29:00,
2013-02-10 10:35:00,58.1,56.7,29.77,South,181,2.0,12.0,95,0.00,,---,0.71,VWS V13.01,2013-02-10 16:35:00,
2013-02-10 10:40:00,58.2,56.5,29.77,WSW,250,3.0,11.0,94,0.00,,---,0.71,VWS V13.01,2013-02-10 16:40:00,
2013-02-10 10:45:00,58.4,56.7,29.77,SW,230,2.0,11.0,94,0.00,,---,0.71,VWS V13.01,2013-02-10 16:45:00,
2013-02-10 10:50:00,58.7,57.0,29.77,SW,225,2.0,11.0,94,0.00,,---,0.71,VWS V13.01,2013-02-10 16:50:00,
2013-02-10 10:55:00,59.0,57.3,29.76,WSW,252,0.0,11.0,94,0.00,,---,0.71,VWS V13.01,2013-02-10 16:55:00,
2013-02-10 11:00:00,59.4,57.7,29.75,SW,227,5.0,11.0,94,0.00,,---,0.71,VWS V13.01,2013-02-10 17:00:00,
2013-02-10 11:05:00,59.9,57.9,29.75,SSW,209,6.0,11.0,93,0.00,,---,0.71,VWS V13.01,2013-02-10 17:05:00,
2013-02-10 11:10:00,60.5,58.2,29.75,WSW,238,3.0,11.0,92,0.00,,---,0.71,VWS V13.01,2013-02-10 17:10:00,
2013-02-10 11:15:00,60.5,57.9,29.75,WSW,240,1.0,13.0,91,0.00,,---,0.71,VWS V13.01,2013-02-10 17:15:00,
2013-02-10 11:20:00,60.7,58.1,29.75,SSW,213,1.0,13.0,91,0.00,,---,0.71,VWS V13.01,2013-02-10 17:20:00,
2013-02-10 11:25:00,60.9,58.0,29.75,SW,218,0.0,13.0,90,0.00,,---,0.71,VWS V13.01,2013-02-10 17:25:00,
2013-02-10 11:30:00,61.4,58.1,29.75,SW,234,5.0,13.0,89,0.00,,---,0.71,VWS V13.01,2013-02-10 17:30:00,
2013-02-10 11:35:00,61.7,58.1,29.74,SW,231,5.0,13.0,88,0.00,,---,0.71,VWS V13.01,2013-02-10 17:35:00,
2013-02-10 11:40:00,62.3,58.1,29.74,SSW,211,0.0,11.0,86,0.00,,---,0.71,VWS V13.01,2013-02-10 17:40:00,
2013-02-10 11:45:00,62.2,57.6,29.74,SSW,205,0.0,12.0,85,0.00,,---,0.71,VWS V13.01,2013-02-10 17:45:00,
2013-02-10 11:50:00,62.5,57.3,29.73,NNE,15,0.0,12.0,83,0.00,,---,0.71,VWS V13.01,2013-02-10 17:50:00,
2013-02-10 11:55:00,63.7,58.5,29.72,SW,229,4.0,12.0,83,0.00,,---,0.71,VWS V13.01,2013-02-10 17:55:00,
2013-02-10 12:00:00,64.2,57.9,29.73,North,360,3.0,12.0,80,0.00,,---,0.71,VWS V13.01,2013-02-10 18:00:00,
2013-02-10 12:05:00,63.4,57.1,29.73,NW,319,0.0,12.0,80,0.00,,---,0.71,VWS V13.01,2013-02-10 18:05:00,
2013-02-10 12:11:00,62.3,56.7,29.73,NW,307,6.0,10.0,82,0.00,,---,0.71,VWS V13.01,2013-02-10 18:11:00,
2013-02-10 12:16:00,62.1,56.2,29.73,NNW,337,0.0,10.0,81,0.00,,---,0.71,VWS V13.01,2013-02-10 18:16:00,
2013-02-10 12:21:00,62.2,55.6,29.73,NW,317,0.0,10.0,79,0.00,,---,0.71,VWS V13.01,2013-02-10 18:21:00,
2013-02-10 12:26:00,62.2,54.5,29.73,NNW,337,0.0,11.0,76,0.00,,---,0.71,VWS V13.01,2013-02-10 18:26:00,
2013-02-10 12:31:00,61.9,54.3,29.73,North,360,3.0,11.0,76,0.00,,---,0.71,VWS V13.01,2013-02-10 18:31:00,
2013-02-10 12:36:00,61.5,52.8,29.73,NNW,331,1.0,4.0,73,0.00,,---,0.71,VWS V13.01,2013-02-10 18:36:00,
2013-02-10 12:41:00,61.0,51.5,29.72,WNW,301,0.0,9.0,71,0.00,,---,0.71,VWS V13.01,2013-02-10 18:41:00,
2013-02-10 12:46:00,61.3,51.8,29.73,NW,309,2.0,14.0,71,0.00,,---,0.71,VWS V13.01,2013-02-10 18:46:00,
2013-02-10 12:51:00,60.5,51.1,29.73,WNW,300,3.0,14.0,71,0.00,,---,0.71,VWS V13.01,2013-02-10 18:51:00,
2013-02-10 12:56:00,60.4,51.7,29.73,NW,323,0.0,14.0,73,0.00,,---,0.71,VWS V13.01,2013-02-10 18:56:00,
2013-02-10 13:01:00,61.3,52.6,29.73,NW,319,7.0,14.0,73,0.00,,---,0.71,VWS V13.01,2013-02-10 19:01:00,
2013-02-10 13:06:00,62.0,52.1,29.72,NW,309,2.0,4.0,70,0.00,,---,0.71,VWS V13.01,2013-02-10 19:06:00,
2013-02-10 13:11:00,62.3,52.0,29.72,North,349,2.0,6.0,69,0.00,,---,0.71,VWS V13.01,2013-02-10 19:11:00,
2013-02-10 13:16:00,62.5,51.8,29.72,North,349,2.0,6.0,68,0.00,,---,0.71,VWS V13.01,2013-02-10 19:16:00,
2013-02-10 13:22:00,62.6,51.5,29.72,North,355,0.0,7.0,67,0.00,,---,0.71,VWS V13.01,2013-02-10 19:22:00,
2013-02-10 13:27:00,62.8,51.7,29.72,NNW,347,1.0,9.0,67,0.00,,---,0.71,VWS V13.01,2013-02-10 19:27:00,
2013-02-10 13:32:00,63.0,51.1,29.72,NW,313,1.0,10.0,65,0.00,,---,0.71,VWS V13.01,2013-02-10 19:32:00,
2013-02-10 13:37:00,63.3,51.3,29.72,NNW,336,11.0,11.0,65,0.00,,---,0.71,VWS V13.01,2013-02-10 19:37:00,
2013-02-10 13:42:00,63.3,50.9,29.72,NW,323,0.0,11.0,64,0.00,,---,0.71,VWS V13.01,2013-02-10 19:42:00,
2013-02-10 13:47:00,63.8,51.4,29.71,NW,314,2.0,11.0,64,0.00,,---,0.71,VWS V13.01,2013-02-10 19:47:00,
2013-02-10 13:52:00,64.3,50.6,29.71,NW,314,0.0,11.0,61,0.00,,---,0.71,VWS V13.01,2013-02-10 19:52:00,
2013-02-10 13:57:00,64.1,50.0,29.71,WNW,302,2.0,11.0,60,0.00,,---,0.71,VWS V13.01,2013-02-10 19:57:00,
2013-02-10 14:02:00,65.0,49.4,29.71,WNW,296,0.0,11.0,57,0.00,,---,0.71,VWS V13.01,2013-02-10 20:02:00,
2013-02-10 14:07:00,65.1,48.1,29.71,West,263,5.0,6.0,54,0.00,,---,0.71,VWS V13.01,2013-02-10 20:07:00,
2013-02-10 14:12:00,66.0,45.2,29.72,NNW,341,4.0,6.0,47,0.00,,---,0.71,VWS V13.01,2013-02-10 20:12:00,
2013-02-10 14:17:00,66.5,45.7,29.71,SW,234,1.0,12.0,47,0.00,,---,0.71,VWS V13.01,2013-02-10 20:17:00,
2013-02-10 14:22:00,66.9,41.2,29.72,NW,326,0.0,14.0,39,0.00,,---,0.71,VWS V13.01,2013-02-10 20:22:00,
2013-02-10 14:27:00,66.6,42.2,29.72,NW,318,2.0,17.0,41,0.00,,---,0.71,VWS V13.01,2013-02-10 20:27:00,
2013-02-10 14:33:00,66.7,38.9,29.72,West,267,3.0,17.0,36,0.00,,---,0.71,VWS V13.01,2013-02-10 20:33:00,
2013-02-10 14:38:00,66.6,40.9,29.73,South,184,3.0,7.0,39,0.00,,---,0.71,VWS V13.01,2013-02-10 20:38:00,
2013-02-10 14:43:00,66.3,40.6,29.73,West,259,3.0,10.0,39,0.00,,---,0.71,VWS V13.01,2013-02-10 20:43:00,
2013-02-10 14:48:00,66.8,40.4,29.73,SW,227,2.0,14.0,38,0.00,,---,0.71,VWS V13.01,2013-02-10 20:48:00,
2013-02-10 14:53:00,67.0,39.9,29.73,NW,306,2.0,14.0,37,0.00,,---,0.71,VWS V13.01,2013-02-10 20:53:00,
2013-02-10 14:58:00,66.9,39.8,29.73,West,279,1.0,17.0,37,0.00,,---,0.71,VWS V13.01,2013-02-10 20:58:00,
2013-02-10 15:03:00,67.0,39.9,29.73,WNW,300,0.0,17.0,37,0.00,,---,0.71,VWS V13.01,2013-02-10 21:03:00,
2013-02-10 15:08:00,66.6,38.8,29.74,WNW,297,0.0,9.0,36,0.00,,---,0.71,VWS V13.01,2013-02-10 21:08:00,
2013-02-10 15:13:00,66.3,40.0,29.74,West,267,6.0,14.0,38,0.00,,---,0.71,VWS V13.01,2013-02-10 21:13:00,
2013-02-10 15:18:00,65.8,36.7,29.74,NNW,340,0.0,14.0,34,0.00,,---,0.71,VWS V13.01,2013-02-10 21:18:00,
2013-02-10 15:23:00,65.2,35.4,29.74,WSW,248,10.0,14.0,33,0.00,,---,0.71,VWS V13.01,2013-02-10 21:23:00,
2013-02-10 15:28:00,64.9,35.1,29.74,WNW,291,9.0,14.0,33,0.00,,---,0.71,VWS V13.01,2013-02-10 21:28:00,
2013-02-10 15:33:00,64.6,34.1,29.75,NW,326,4.0,14.0,32,0.00,,---,0.71,VWS V13.01,2013-02-10 21:33:00,
2013-02-10 15:38:00,64.3,33.0,29.75,WNW,302,0.0,12.0,31,0.00,,---,0.71,VWS V13.01,2013-02-10 21:38:00,
2013-02-10 15:43:00,64.1,33.7,29.75,NW,308,3.0,14.0,32,0.00,,---,0.71,VWS V13.01,2013-02-10 21:43:00,
2013-02-10 15:48:00,64.2,33.8,29.75,NNW,329,2.0,14.0,32,0.00,,---,0.71,VWS V13.01,2013-02-10 21:48:00,
2013-02-10 15:53:00,64.3,36.1,29.76,WNW,284,0.0,14.0,35,0.00,,---,0.71,VWS V13.01,2013-02-10 21:53:00,
2013-02-10 15:58:00,64.2,35.3,29.76,NW,305,0.0,14.0,34,0.00,,---,0.71,VWS V13.01,2013-02-10 21:58:00,
2013-02-10 16:04:00,63.5,36.1,29.76,WNW,297,0.0,14.0,36,0.00,,---,0.71,VWS V13.01,2013-02-10 22:04:00,
2013-02-10 16:09:00,63.0,36.3,29.76,North,355,4.0,11.0,37,0.00,,---,0.71,VWS V13.01,2013-02-10 22:09:00,
2013-02-10 16:14:00,63.0,35.7,29.76,WNW,286,1.0,11.0,36,0.00,,---,0.71,VWS V13.01,2013-02-10 22:14:00,
2013-02-10 16:19:00,63.0,34.2,29.77,NNW,341,4.0,14.0,34,0.00,,---,0.71,VWS V13.01,2013-02-10 22:19:00,
2013-02-10 16:24:00,62.6,34.6,29.77,NNW,335,0.0,14.0,35,0.00,,---,0.71,VWS V13.01,2013-02-10 22:24:00,
2013-02-10 16:29:00,62.5,34.5,29.77,West,278,5.0,14.0,35,0.00,,---,0.71,VWS V13.01,2013-02-10 22:29:00,
2013-02-10 16:34:00,62.4,35.8,29.77,NW,307,0.0,14.0,37,0.00,,---,0.71,VWS V13.01,2013-02-10 22:34:00,
2013-02-10 16:39:00,62.3,35.7,29.77,NW,321,1.0,12.0,37,0.00,,---,0.71,VWS V13.01,2013-02-10 22:39:00,
2013-02-10 16:44:00,62.1,36.2,29.78,WNW,284,0.0,12.0,38,0.00,,---,0.71,VWS V13.01,2013-02-10 22:44:00,
2013-02-10 16:49:00,61.8,36.0,29.78,WNW,294,4.0,12.0,38,0.00,,---,0.71,VWS V13.01,2013-02-10 22:49:00,
2013-02-10 16:54:00,61.6,36.4,29.79,WNW,286,2.0,12.0,39,0.00,,---,0.71,VWS V13.01,2013-02-10 22:54:00,
2013-02-10 16:59:00,61.5,35.0,29.79,WNW,295,3.0,15.0,37,0.00,,---,0.71,VWS V13.01,2013-02-10 22:59:00,
2013-02-10 17:04:00,61.4,35.6,29.79,WNW,290,2.0,15.0,38,0.00,,---,0.71,VWS V13.01,2013-02-10 23:04:00,
2013-02-10 17:10:00,61.2,35.4,29.79,West,271,0.0,7.0,38,0.00,,---,0.71,VWS V13.01,2013-02-10 23:10:00,
2013-02-10 17:15:00,61.0,35.2,29.80,NW,309,4.0,7.0,38,0.00,,---,0.71,VWS V13.01,2013-02-10 23:15:00,
2013-02-10 17:20:00,60.6,36.8,29.80,West,271,0.0,7.0,41,0.00,,---,0.71,VWS V13.01,2013-02-10 23:20:00,
2013-02-10 17:25:00,59.8,37.9,29.80,WNW,291,2.0,7.0,44,0.00,,---,0.71,VWS V13.01,2013-02-10 23:25:00,
2013-02-10 17:30:00,59.1,37.8,29.81,NW,312,0.0,7.0,45,0.00,,---,0.71,VWS V13.01,2013-02-10 23:30:00,
2013-02-10 17:35:00,58.8,38.1,29.81,WNW,286,0.0,7.0,46,0.00,,---,0.71,VWS V13.01,2013-02-10 23:35:00,
2013-02-10 17:40:00,58.2,37.5,29.82,WNW,298,0.0,10.0,46,0.00,,---,0.71,VWS V13.01,2013-02-10 23:40:00,
2013-02-10 17:45:00,57.7,37.6,29.82,North,349,2.0,10.0,47,0.00,,---,0.71,VWS V13.01,2013-02-10 23:45:00,
2013-02-10 17:50:00,57.2,37.7,29.82,NW,322,0.0,10.0,48,0.00,,---,0.71,VWS V13.01,2013-02-10 23:50:00,
2013-02-10 17:55:00,56.6,37.7,29.83,NW,319,1.0,10.0,49,0.00,,---,0.71,VWS V13.01,2013-02-10 23:55:00,
2013-02-10 18:00:00,56.3,37.4,29.83,WNW,285,1.0,10.0,49,0.00,,---,0.71,VWS V13.01,2013-02-11 00:00:00,
2013-02-10 18:05:00,56.2,36.8,29.83,WNW,300,2.0,10.0,48,0.00,,---,0.71,VWS V13.01,2013-02-11 00:05:00,
2013-02-10 18:10:00,55.8,37.5,29.84,WNW,284,0.0,11.0,50,0.00,,---,0.71,VWS V13.01,2013-02-11 00:10:00,
2013-02-10 18:15:00,55.4,37.1,29.84,NNW,344,3.0,11.0,50,0.00,,---,0.71,VWS V13.01,2013-02-11 00:15:00,
2013-02-10 18:20:00,55.1,36.3,29.84,NNW,329,0.0,11.0,49,0.00,,---,0.71,VWS V13.01,2013-02-11 00:20:00,
2013-02-10 18:25:00,54.8,36.5,29.85,NW,318,0.0,11.0,50,0.00,,---,0.71,VWS V13.01,2013-02-11 00:25:00,
2013-02-10 18:30:00,54.4,36.2,29.85,WNW,299,0.0,11.0,50,0.00,,---,0.71,VWS V13.01,2013-02-11 00:30:00,
2013-02-10 18:35:00,54.1,35.9,29.85,WNW,301,6.0,11.0,50,0.00,,---,0.71,VWS V13.01,2013-02-11 00:35:00,
2013-02-10 18:40:00,54.0,35.8,29.85,NW,325,0.0,3.0,50,0.00,,---,0.71,VWS V13.01,2013-02-11 00:40:00,
2013-02-10 18:45:00,53.8,35.6,29.86,NNW,327,0.0,3.0,50,0.00,,---,0.71,VWS V13.01,2013-02-11 00:45:00,
2013-02-10 18:50:00,53.5,35.8,29.86,WNW,288,0.0,4.0,51,0.00,,---,0.71,VWS V13.01,2013-02-11 00:50:00,
2013-02-10 18:55:00,53.3,35.7,29.86,NW,311,0.0,4.0,51,0.00,,---,0.71,VWS V13.01,2013-02-11 00:55:00,
2013-02-10 19:00:00,53.2,36.0,29.86,NNW,327,0.0,4.0,52,0.00,,---,0.71,VWS V13.01,2013-02-11 01:00:00,
2013-02-10 19:05:00,53.0,35.9,29.87,WNW,285,0.0,6.0,52,0.00,,---,0.71,VWS V13.01,2013-02-11 01:05:00,
2013-02-10 19:10:00,52.8,36.2,29.86,NW,322,0.0,3.0,53,0.00,,---,0.71,VWS V13.01,2013-02-11 01:10:00,
2013-02-10 19:15:00,52.5,35.9,29.86,WNW,296,0.0,3.0,53,0.00,,---,0.71,VWS V13.01,2013-02-11 01:15:00,
2013-02-10 19:20:00,52.4,35.8,29.87,NW,311,0.0,3.0,53,0.00,,---,0.71,VWS V13.01,2013-02-11 01:20:00,
2013-02-10 19:25:00,52.1,35.5,29.87,NW,311,0.0,3.0,53,0.00,,---,0.71,VWS V13.01,2013-02-11 01:25:00,
2013-02-10 19:30:00,51.8,35.7,29.88,NW,310,0.0,3.0,54,0.00,,---,0.71,VWS V13.01,2013-02-11 01:30:00,
2013-02-10 19:35:00,51.5,35.4,29.88,NW,309,0.0,3.0,54,0.00,,---,0.71,VWS V13.01,2013-02-11 01:35:00,
2013-02-10 19:40:00,51.2,35.6,29.88,NW,307,0.0,1.0,55,0.00,,---,0.71,VWS V13.01,2013-02-11 01:40:00,
2013-02-10 19:45:00,51.0,35.9,29.89,NW,307,0.0,1.0,56,0.00,,---,0.71,VWS V13.01,2013-02-11 01:45:00,
2013-02-10 19:50:00,50.8,35.7,29.89,NW,307,0.0,1.0,56,0.00,,---,0.71,VWS V13.01,2013-02-11 01:50:00,
2013-02-10 19:55:00,50.8,35.7,29.89,NW,304,0.0,1.0,56,0.00,,---,0.71,VWS V13.01,2013-02-11 01:55:00,
2013-02-10 20:00:00,50.9,34.9,29.89,WNW,291,0.0,2.0,54,0.00,,---,0.71,VWS V13.01,2013-02-11 02:00:00,
2013-02-10 20:05:00,51.0,35.0,29.89,West,273,0.0,4.0,54,0.00,,---,0.71,VWS V13.01,2013-02-11 02:05:00,
2013-02-10 20:10:00,51.5,34.5,29.89,West,272,0.0,3.0,52,0.00,,---,0.71,VWS V13.01,2013-02-11 02:10:00,
2013-02-10 20:15:00,51.7,34.7,29.90,West,274,0.0,3.0,52,0.00,,---,0.71,VWS V13.01,2013-02-11 02:15:00,
2013-02-10 20:20:00,51.6,34.6,29.90,NW,313,0.0,3.0,52,0.00,,---,0.71,VWS V13.01,2013-02-11 02:20:00,
2013-02-10 20:25:00,51.7,34.7,29.90,West,279,0.0,4.0,52,0.00,,---,0.71,VWS V13.01,2013-02-11 02:25:00,
2013-02-10 20:30:00,51.7,34.7,29.91,West,270,0.0,5.0,52,0.00,,---,0.71,VWS V13.01,2013-02-11 02:30:00,
2013-02-10 20:35:00,51.6,35.0,29.91,West,270,0.0,5.0,53,0.00,,---,0.71,VWS V13.01,2013-02-11 02:35:00,
2013-02-10 20:40:00,51.4,34.9,29.91,West,270,0.0,2.0,53,0.00,,---,0.71,VWS V13.01,2013-02-11 02:40:00,
2013-02-10 20:45:00,51.2,35.1,29.92,West,270,0.0,2.0,54,0.00,,---,0.71,VWS V13.01,2013-02-11 02:45:00,
2013-02-10 20:51:00,51.1,35.0,29.92,West,263,1.0,3.0,54,0.00,,---,0.71,VWS V13.01,2013-02-11 02:51:00,
2013-02-10 20:56:00,50.9,34.9,29.92,West,263,0.0,3.0,54,0.00,,---,0.71,VWS V13.01,2013-02-11 02:56:00,
2013-02-10 21:01:00,50.7,34.2,29.92,West,263,0.0,3.0,53,0.00,,---,0.71,VWS V13.01,2013-02-11 03:01:00,
2013-02-10 21:06:00,50.6,34.6,29.92,West,264,0.0,0.0,54,0.00,,---,0.71,VWS V13.01,2013-02-11 03:06:00,
2013-02-10 21:11:00,50.5,34.5,29.92,NW,311,0.0,2.0,54,0.00,,---,0.71,VWS V13.01,2013-02-11 03:11:00,
2013-02-10 21:16:00,50.5,34.5,29.93,West,264,0.0,3.0,54,0.00,,---,0.71,VWS V13.01,2013-02-11 03:16:00,
2013-02-10 21:21:00,50.4,34.4,29.93,West,263,0.0,3.0,54,0.00,,---,0.71,VWS V13.01,2013-02-11 03:21:00,
2013-02-10 21:26:00,50.3,34.3,29.93,NW,319,0.0,7.0,54,0.00,,---,0.71,VWS V13.01,2013-02-11 03:26:00,
2013-02-10 21:31:00,50.3,34.8,29.93,NNW,338,0.0,7.0,55,0.00,,---,0.71,VWS V13.01,2013-02-11 03:31:00,
2013-02-10 21:36:00,50.2,34.7,29.93,NNW,328,0.0,1.0,55,0.00,,---,0.71,VWS V13.01,2013-02-11 03:36:00,
2013-02-10 21:41:00,50.1,34.6,29.94,NW,323,0.0,1.0,55,0.00,,---,0.71,VWS V13.01,2013-02-11 03:41:00,
2013-02-10 21:46:00,50.1,34.6,29.94,NW,322,0.0,2.0,55,0.00,,---,0.71,VWS V13.01,2013-02-11 03:46:00,
2013-02-10 21:51:00,50.1,34.6,29.95,NW,317,0.0,2.0,55,0.00,,---,0.71,VWS V13.01,2013-02-11 03:51:00,
2013-02-10 21:56:00,50.0,34.5,29.95,NW,317,0.0,2.0,55,0.00,,---,0.71,VWS V13.01,2013-02-11 03:56:00,
2013-02-10 22:01:00,50.0,34.9,29.95,WNW,302,2.0,4.0,56,0.00,,---,0.71,VWS V13.01,2013-02-11 04:01:00,
2013-02-10 22:06:00,49.9,34.8,29.95,WNW,300,0.0,0.0,56,0.00,,---,0.71,VWS V13.01,2013-02-11 04:06:00,
2013-02-10 22:11:00,49.8,34.3,29.95,WNW,299,1.0,3.0,55,0.00,,---,0.71,VWS V13.01,2013-02-11 04:11:00,
2013-02-10 22:16:00,49.7,34.2,29.95,WNW,288,0.0,3.0,55,0.00,,---,0.71,VWS V13.01,2013-02-11 04:16:00,
2013-02-10 22:21:00,49.7,34.7,29.95,WNW,288,0.0,3.0,56,0.00,,---,0.71,VWS V13.01,2013-02-11 04:21:00,
2013-02-10 22:26:00,49.6,34.6,29.96,NW,309,0.0,5.0,56,0.00,,---,0.71,VWS V13.01,2013-02-11 04:26:00,
2013-02-10 22:31:00,49.7,35.1,29.97,NW,322,0.0,7.0,57,0.00,,---,0.71,VWS V13.01,2013-02-11 04:31:00,
2013-02-10 22:36:00,49.7,35.5,29.98,NNW,333,0.0,5.0,58,0.00,,---,0.71,VWS V13.01,2013-02-11 04:36:00,
2013-02-10 22:41:00,49.7,36.0,29.98,NNW,330,0.0,5.0,59,0.00,,---,0.71,VWS V13.01,2013-02-11 04:41:00,
2013-02-10 22:46:00,49.7,36.4,29.98,NNW,330,0.0,5.0,60,0.00,,---,0.71,VWS V13.01,2013-02-11 04:46:00,
2013-02-10 22:51:00,49.6,36.3,29.98,NNW,329,0.0,5.0,60,0.00,,---,0.71,VWS V13.01,2013-02-11 04:51:00,
2013-02-10 22:56:00,49.5,36.6,29.99,WNW,286,4.0,5.0,61,0.00,,---,0.71,VWS V13.01,2013-02-11 04:56:00,
2013-02-10 23:00:00,49.4,36.9,29.99,WNW,298,0.0,5.0,62,0.00,,---,0.71,VWS V13.01,2013-02-11 05:00:00,
2013-02-10 23:03:00,49.2,37.2,29.99,NW,306,0.0,5.0,63,0.00,,---,0.71,VWS V13.01,2013-02-11 05:03:00,
2013-02-10 23:08:00,48.9,36.5,29.99,WNW,300,0.0,6.0,62,0.00,,---,0.71,VWS V13.01,2013-02-11 05:08:00,
2013-02-10 23:13:00,48.6,35.8,30.00,NW,304,2.0,9.0,61,0.00,,---,0.71,VWS V13.01,2013-02-11 05:13:00,
2013-02-10 23:18:00,48.5,36.1,30.00,NW,307,0.0,9.0,62,0.00,,---,0.71,VWS V13.01,2013-02-11 05:18:00,
2013-02-10 23:23:00,48.4,36.0,30.01,WNW,296,0.0,9.0,62,0.00,,---,0.71,VWS V13.01,2013-02-11 05:23:00,
2013-02-10 23:28:00,48.2,35.8,30.01,WNW,291,0.0,9.0,62,0.00,,---,0.71,VWS V13.01,2013-02-11 05:28:00,
2013-02-10 23:33:00,48.0,35.6,30.01,NW,322,1.0,9.0,62,0.00,,---,0.71,VWS V13.01,2013-02-11 05:33:00,
2013-02-10 23:38:00,47.9,35.9,30.01,NW,319,1.0,3.0,63,0.00,,---,0.71,VWS V13.01,2013-02-11 05:38:00,
2013-02-10 23:43:00,47.8,35.8,30.01,NW,318,0.0,5.0,63,0.00,,---,0.71,VWS V13.01,2013-02-11 05:43:00,
2013-02-10 23:48:00,47.7,35.7,30.02,NW,326,1.0,6.0,63,0.00,,---,0.71,VWS V13.01,2013-02-11 05:48:00,
2013-02-10 23:53:00,47.6,35.6,30.02,North,349,0.0,6.0,63,0.00,,---,0.71,VWS V13.01,2013-02-11 05:53:00,
2013-02-10 23:58:00,47.4,35.5,30.02,NNW,340,0.0,6.0,63,0.00,,---,0.71,VWS V13.01,2013-02-11 05:58:00,